Aérodrome :
LOGIN :

S'inscrire | Disclaimer

   EN    FR    IT 

 










Légende :    VFR   VFR Marginal   IFR   IFR Intensif   IFR Très Intensif
Visi : 
Plafond : 
>= 8 km
>= 3000ft
5 à 8 km
1000 à 3000 ft
1500m à 5 km
500 à 1000 ft
800 à 1500m
200 à 500 ft
< 800m
< 200 ft
Symboles :   Orages  Brouillard  Fortes neiges  Fortes précipitations  Vent > 20 kt
SIGMETs :   Divers  Orages  Givrage  Turbulence  Onde Orograph.  Cendres Volcan.






- Altitude de l'aérodrome : 1400 ft


LSME - Luzern Emmen

DERNIER METAR :
  • 031850Z AUTO 01003KT 330V060 9999NDV -SHRA FEW053 SCT067 BKN080 18/12 Q1004 RMK

METARs EXPIRÉS :
  • 031820Z AUTO 24008KT 210V280 4500NDV OVC077 19/10 Q1005 RMK
  • 031750Z AUTO 25011KT 3300NDV BKN087 18/11 Q1005 RMK
  • 031720Z AUTO 21006KT 9999NDV FEW075 BKN090 BKN120 18/12 Q1005 RMK
  • 031650Z AUTO 22005KT 9999NDV BKN120 18/13 Q1004 RMK

Prévision TAF périmée.



MET'MAP, la Météo Aéronautique d'un coup d'oeil ! - Copyright ORBIFLY Décembre 2007 - Disclaimer

ORBIFLY MET'MAP TEAM :

Programmation & Développement : Alexandra Zaïnal
Sur une idée originale de : Baudouin d'Aumeries
Assistance à la programmation : Marc-Olivier Méhu
Soutien technique & logistique : Manuel Goepfert

Contact : metmap@orbifly.com




SOURCES & CREDITS :

   NOAA